EW6338 Weather Reports


Display with metric or nautical units.
time (UTC)temp
F
wind
direction
speed
MPH
gust
MPH
rain 1hr
in
rain 24hr
in
rain mn
in
humidity
%
barometer
mb
20260506081535 62 250 0.0 3.0 0.00 0.00 0.00 76 1008.0
20260506073030 63 188 0.0 5.0 0.00 0.00 0.00 73 1007.8
20260506071528 63 189 0.0 7.0 0.00 0.00 0.00 73 1007.7
20260506061524 64 68 0.0 5.0 0.00 0.00 0.00 69 1007.3
20260506044527 64 221 1.0 5.0 0.00 0.00 0.00 67 1007.8
20260506043015 64 136 1.0 6.0 0.00 0.00 0.00 67 1007.8
20260506041514 64 213 1.0 6.0 0.00 0.00 0.00 67 1007.9
20260506040013 64 129 0.0 6.0 0.00 0.00 0.00 66 1007.8
20260506034511 64 243 0.0 6.0 0.00 0.00 0.00 65 1007.9
20260506033009 65 254 0.0 3.0 0.00 0.00 0.00 64 1007.8
20260506031517 65 285 3.0 8.0 0.00 0.00 0.00 63 1007.8
20260506030024 66 261 2.0 7.0 0.00 0.00 0.00 62 1007.8
20260506024519 66 275 2.0 8.0 0.00 0.00 0.00 62 1007.9
20260506023008 66 233 0.0 8.0 0.00 0.00 0.00 61 1007.9
20260506021507 67 155 0.0 6.0 0.00 0.00 0.00 61 1007.9
20260506020006 67 288 0.0 1.0 0.00 0.00 0.00 61 1007.9
20260506014505 67 141 0.0 6.0 0.00 0.00 0.00 61 1007.8
20260506013005 67 265 1.0 5.0 0.00 0.00 0.00 60 1007.8
20260506011504 68 231 0.0 7.0 0.00 0.00 0.00 59 1007.1
20260506010006 68 297 2.0 6.0 0.00 0.00 0.00 58 1007.0
20260506004509 69 232 1.0 7.0 0.00 0.00 0.00 57 1006.7
20260506003002 69 257 1.0 9.0 0.00 0.00 0.00 56 1006.3
20260506001502 70 108 4.0 13.0 0.00 0.00 0.00 55 1005.9
20260506000001 71 96 2.0 7.0 0.00 0.00 0.00 55 1005.7
20260505234601 72 229 2.0 8.0 0.00 0.00 0.00 54 1005.4
20260505233125 72 195 1.0 8.0 0.00 0.00 0.00 53 1005.2
20260505231559 73 194 2.0 7.0 0.00 0.00 0.00 52 1005.1
20260505230058 74 165 1.0 6.0 0.00 0.00 0.00 51 1004.9
20260505224558 75 249 3.0 10.0 0.00 0.00 0.00 50 1004.7
20260505223056 75 269 5.0 19.0 0.00 0.00 0.00 50 1004.5
20260505221603 76 194 2.0 12.0 0.00 0.00 0.00 49 1004.0
20260505220055 77 205 3.0 14.0 0.00 0.00 0.00 47 1004.0
20260505214555 78 245 4.0 11.0 0.00 0.00 0.00 45 1003.8
20260505213057 79 241 3.0 12.0 0.00 0.00 0.00 43 1003.7
20260505211553 80 130 2.0 10.0 0.00 0.00 0.00 43 1003.5
20260505210053 80 201 3.0 18.0 0.00 0.00 0.00 43 1003.3
20260505204552 81 160 3.0 12.0 0.00 0.00 0.00 42 1003.2
20260505203055 81 120 5.0 15.0 0.00 0.00 0.00 41 1003.4
20260505201552 83 152 4.0 12.0 0.00 0.00 0.00 40 1003.5
20260505200048 82 238 3.0 19.0 0.00 0.00 0.00 40 1003.4
20260505194552 82 77 3.0 13.0 0.00 0.00 0.00 41 1003.4
20260505193102 82 229 3.0 16.0 0.00 0.00 0.00 42 1003.7
20260505191544 82 156 3.0 18.0 0.00 0.00 0.00 41 1003.7
20260505190043 82 160 3.0 16.0 0.00 0.00 0.00 41 1004.3
20260505184540 82 293 1.0 13.0 0.00 0.00 0.00 41 1004.2
20260505183037 82 203 3.0 16.0 0.00 0.00 0.00 40 1004.6
20260505181536 82 272 5.0 16.0 0.00 0.00 0.00 41 1004.8
20260505180039 82 293 5.0 13.0 0.00 0.00 0.00 41 1004.8
20260505174532 82 243 4.0 11.0 0.00 0.00 0.00 41 1005.2
20260505173029 81 226 4.0 15.0 0.00 0.00 0.00 41 1005.5
20260505171528 81 296 5.0 13.0 0.00 0.00 0.00 40 1005.9
20260505170026 80 182 3.0 11.0 0.00 0.00 0.00 42 1005.9
20260505164523 79 39 3.0 13.0 0.00 0.00 0.00 43 1006.2
20260505163017 79 218 2.0 6.0 0.00 0.00 0.00 45 1006.4
20260505161516 78 246 3.0 6.0 0.00 0.00 0.00 47 1006.7
20260505153004 73 213 1.0 8.0 0.00 0.00 0.00 54 1007.5
20260505151501 73 300 0.0 9.0 0.00 0.00 0.00 55 1007.5
20260505124538 64 150 0.0 7.0 0.00 0.00 0.00 67 1008.0
20260505123048 63 267 2.0 10.0 0.00 0.00 0.00 67 1008.0
20260505121534 62 304 1.0 6.0 0.00 0.00 0.00 67 1007.9
20260505120043 61 271 3.0 5.0 0.00 0.00 0.00 69 1007.9
20260505114527 60 165 1.0 5.0 0.00 0.00 0.00 70 1007.9
20260505113023 59 276 1.0 9.0 0.00 0.00 0.00 72 1007.8
20260505111529 58 162 0.0 6.0 0.00 0.00 0.00 73 1007.9
20260505101515 55 270 0.0 2.0 0.00 0.00 0.00 75 1007.9
20260505100015 54 195 0.0 2.0 0.00 0.00 0.00 75 1007.8
20260505094517 53 139 0.0 2.0 0.00 0.00 0.00 76 1007.8
20260505093012 53 219 0.0 1.0 0.00 0.00 0.00 75 1007.8
20260505091512 53 352 0.0 2.0 0.00 0.00 0.00 75 1007.9
20260505090010 53 271 0.0 1.0 0.00 0.00 0.00 75 1008.0
20260505084511 53 143 0.0 1.0 0.00 0.00 0.00 73 1008.1
20260505083012 54 198 0.0 3.0 0.00 0.00 0.00 72 1008.1